Weather in Pavino

Russia / Kostroma Oblast     59°06′53″N   46°08′33″E
temp.,
°C
wind,
m/s
gust,
m/s
humid.,
%
clouds,
%
prec.,
mm/h
press.,
hPa
HPBL,
m
23 september, thu
thu2300:00+6ese41183100 0.6 1022497
03:00+6e31089100 1.1 1022389
06:00+6ese41090100 0.1 1022421
09:00+7ese31091100 0.1 1022453
12:00+10se4983100 0.1 1021703
15:00+8ese4128695 0.2 1020575
18:00+8ese4129299 0.0 1019583
21:00+8se41390100 0.0 1018541
24 september, fri
fri2400:00+8ese41193100 0.1 1017548
03:00+8se41194100 0.2 1015655
06:00+8se41197100 1.8 1014624
09:00+8se41197100 1.9 1014685
12:00+9se41095100 0.1 1014681
15:00+8ese4995100 0.1 1013709
18:00+8se41097100 2.8 1013633
21:00+8se41097100 5.9 1013659
25 september, sat
sat2500:00+8se41097100 1.4 1013662
03:00+8ese41097100 2.8 1009708
06:00+8se3998100 0.9 1012604
09:00+8se3897100 1.6 1013648
12:00+8ese3895100 0.4 1013603
15:00+8ese3996100 2.0 1012648
18:00+8e3896100 2.2 1012522
21:00+6e3895100 2.5 1012402
26 september, sun
sun2600:00+7ese2697100 0.2 1011338
03:00+6ese2498100 0.3 1011227
06:00+6ese1498100 0.3 1011184
09:00+7ese2597100 0.6 1012345
12:00+7e2496100 0.4 1013312
15:00+7e2696100 0.6 1015413
18:00+8ene3897100 0.3 1017402
21:00+8ene41095100 0.4 1018485
27 september, mon
mon2700:00+7ene41194100 0.0 1020532
03:00+6ene41091100 0.0 1023625
06:00+6ene4892100 0.0 1025813
09:00+5ene488599 0.1 1028732
12:00+9e476250 0.0 10291087
15:00+10e47505 0.0 10311322
18:00+4ene27710 0.0 1033140
21:00+2ene39800 0.0 1035202